SCP
0 0 0 0 0 0 0 0 0 0 0 0 0 0 0 0 0 0 0 0 0 0 0 0 0 0 0 0 0 0 0 0 0 0 0 0 0 0 0 0 0 0 0
0 0 0 0 0 0 0 0 0 0 0 0 0 0 0 0 0 0 0 0 0 0 0 0 0 0 0 0 0 0 0 0 0 0 0 0 0 0 0 0 0 0 0
0 0 0 0 0 0 0 0 0 0 0 0 0 0 0 0 0 0 0 0 0 0 0 0 0 0 0 0 0 0 0 0 0 0 0 0 0 0 0 0 0 0 0
0 0 0 0 0 0 0 0 0 0 0 0 0 0 0 0 0 0 0 0 0 0 0 0 0 0 0 0 0 0 0 0 0 0 0 0 0 0 0 0 0 0 0
0 0 0 0 0 0 0 0 0 0 0 0 0 0 0 0 0 0 0 0 0 0 0 0 0 0 0 0 0 0 0 0 0 0 0 0 0 0 0 0 0 0 0
0 0 0 0 0 0 0 0 0 0 0 0 0 0 0 0 0 0 0 0 0 0 0 0 0 0 0 0 0 0 0 0 0 0 0 0 0 0 0 0 0 0 0
0 0 0 0 0 0 0 0 0 0 0 0 0 0 0 0 0 0 0 0 0 0 0 0 0 0 0 0 0 0 0 0 0 0 0 0 0 0 0 0 0 0 0
0 0 0 0 0 0 0 0 0 0 0 0 0 0 0 0 0 0 0 0 0 0 0 0 0 0 0 0 0 0 0 0 0 0 0 0 0 0 0 0 0 0 0
0 0 0 0 0 0 0 0 0 0 0 0 0 0 0 0 0 0 0 0 0 0 0 0 0 0 0 0 0 0 0 0 0 0 0 0 0 0 0 0 0 0 0
0 0 0 0 0 0 0 0 0 0 0 0 0 0 0 0 0 0 0 0 0 0 0 0 0 0 0 0 0 0 0 0 0 0 0 0 0 0 0 0 0 0 0
0 0 0 0 0 0 0 0 0 0 0 0 0 0 0 0 0 0 0 0 0 0 0 0 0 0 0 0 0 0 0 0 0 0 0 0 0 0 0 0 0 0 0
0 0 0 0 0 0 0 0 0 0 0 0 0 0 0 0 0 0 0 0 0 0 0 0 0 0 0 0 0 0 0 0 0 0 0 0 0 0 0 0 0 0 0
0 0 0 0 0 0 0 0 0 0 0 0 0 0 0 0 0 0 0 0 0 0 0 0 0 0 0 0 0 0 0 0 0 0 0 0 0 0 0 0 0 0 0
0 0 0 0 0 0 0 0 0 0 0 0 0 0 0 0 0 0 0 0 0 0 0 0 0 0 0 0 0 0 0 0 0 0 0 0 0 0 0 0 0 0 0
0 0 0 0 0 0 0 0 0 0 0 0 0 0 0 0 0 0 0 0 0 0 0 0 0 0 0 0 0 0 0 0 0 0 0 0 0 0 0 0 0 0 0
0 0 0 0 0 0 0 0 0 0 0 0 0 0 0 0 0 0 0 0 0 0 0 0 0 0 0 0 0 0 0 0 0 0 0 0 0 0 0 0 0 0 0
0 0 0 0 0 0 0 0 0 0 0 0 0 0 0 0 0 0 0 0 0 0 0 0 0 0 0 0 0 0 0 0 0 0 0 0 0 0 0 0 0 0 0
0 0 0 0 0 0 0 0 0 0 0 0 0 0 0 0 0 0 0 0 0 0 0 0 0 0 0 0 0 0 0 0 0 0 0 0 0 0 0 0 0 0 0
0 0 0 0 0 0 0 0 0 0 0 0 0 0 0 0 0 0 0 0 0 0 0 0 0 0 0 0 0 0 0 0 0 0 0 0 0 0 0 0 0 0 0
0 0 0 0 0 0 0 0 0 0 0 0 0 0 0 0 0 0 0 0 0 0 0 0 0 0 0 0 0 0 0 0 0 0 0 0 0 0 0 0 0 0 0
0 0 0 0 0 0 0 0 0 0 0 0 0 0 0 0 0 0 0 0 0 0 0 0 0 0 0 0 0 0 0 0 0 0 0 0 0 0 0 0 0 0 0
0 0 0 0 0 0 0 0 0 0 0 0 0 0 0 0 0 0 0 0 0 0 0 0 0 0 0 0 0 0 0 0 0 0 0 0 0 0 0 0 0 0 0
0 0 0 0 0 0 0 0 0 0 0 0 0 0 0 0 0 0 0 0 0 0 0 0 0 0 0 0 0 0 0 0 0 0 0 0 0 0 0 0 0 0 0
0 0 0 0 0 0 0 0 0 0 0 0 0 0 0 0 0 0 0 0 0 0 0 0 0 0 0 0 0 0 0 0 0 0 0 0 0 0 0 0 0 0 0
0 0 0 0 0 0 0 0 0 0 0 0 0 0 0 0 0 0 0 0 0 0 0 0 0 0 0 0 0 0 0 0 0 0 0 0 0 0 0 0 0 0 0
0 0 0 0 0 0 0 0 0 0 0 0 0 0 0 0 0 0 0 0 0 0 0 0 0 0 0 0 0 0 0 0 0 0 0 0 0 0 0 0 0 0 0
Wind_Speed_500mb
12 17 24 30 38 44 51 59 64 67 62 54 53 56 63 67 69 79 73 79 71 88 82 86 88 82 70 67 62 57 55 48 38 40 34 30 28 27 27 23 27 27 25
18 24 30 33 39 45 47 52 58 59 58 55 53 54 58 59 66 67 75 70 81 82 83 86 86 83 71 61 55 52 50 40 33 27 32 26 28 27 22 27 26 25 26
34 36 38 40 42 46 49 52 54 52 52 54 56 59 60 63 65 68 67 72 71 75 77 81 80 72 70 64 56 53 48 41 31 21 21 27 27 22 22 22 24 27 31
44 48 52 51 48 49 51 53 53 51 51 51 52 57 58 61 65 68 66 70 74 75 74 68 65 63 56 56 52 51 42 29 20 22 24 22 25 24 21 25 28 34 40
52 54 58 55 54 56 56 56 52 52 51 50 52 56 57 55 56 56 58 63 68 68 64 57 56 50 46 54 53 42 25 23 26 23 24 25 27 26 29 29 35 42 49
60 62 58 56 57 58 58 54 52 53 52 51 50 54 54 55 54 54 57 60 63 58 55 50 42 45 60 55 45 28 23 23 20 29 32 32 31 27 29 30 41 47 58
66 64 59 58 58 56 56 53 52 52 52 52 49 51 52 52 51 52 49 53 57 53 49 55 52 64 62 60 42 27 18 23 39 46 34 32 30 27 30 36 44 49 54
60 54 50 52 51 50 52 52 50 50 51 49 46 49 50 49 45 46 45 45 46 48 55 54 59 68 69 57 45 31 24 36 45 39 33 38 40 40 38 37 48 53 55
55 52 50 47 45 46 46 47 45 48 49 46 42 46 46 46 45 44 40 42 49 55 58 55 68 62 62 56 35 26 32 38 38 40 40 38 40 40 35 41 46 47 53
49 47 45 45 45 44 40 40 41 43 44 45 44 43 41 39 38 39 40 47 58 63 65 67 66 66 53 42 27 35 39 34 35 31 35 39 38 36 37 39 37 44 48
48 44 41 39 38 37 38 40 38 41 40 42 42 40 37 37 35 34 34 45 60 64 67 68 77 62 46 35 43 42 32 29 30 33 39 38 37 36 36 41 41 42 45
47 43 38 36 34 33 33 33 35 37 37 38 37 37 35 33 29 29 30 47 56 62 67 71 72 66 56 44 42 41 29 31 34 38 39 38 37 41 45 46 45 45 50
39 37 35 34 32 30 29 30 30 30 32 32 34 34 32 32 30 27 36 47 54 58 67 65 58 59 53 51 45 40 33 35 41 42 40 41 45 44 45 45 46 45 48
32 30 27 27 25 25 26 27 26 27 28 27 27 26 25 26 29 36 48 41 55 58 54 54 59 47 52 53 47 42 41 40 45 47 48 48 46 44 44 46 45 43 42
27 26 25 23 18 18 20 18 18 18 15 14 14 14 15 19 24 33 47 50 53 55 53 54 57 53 64 58 53 52 53 51 52 51 50 47 44 44 46 45 42 40 37
27 26 27 26 19 18 18 16 18 18 18 17 13 13 14 15 17 29 42 45 44 49 53 55 56 60 60 60 59 58 55 55 53 51 49 46 44 45 44 41 39 37 35
24 21 22 24 20 18 15 13 17 19 21 20 17 15 16 19 21 26 33 37 42 44 51 50 56 61 59 57 61 59 57 55 53 52 48 45 45 44 41 38 36 36 33
12 7 11 15 12 14 14 15 12 16 19 22 25 25 24 22 24 26 31 36 43 49 52 55 56 57 58 58 56 59 60 57 53 49 47 47 46 43 40 37 36 34 31
16 11 10 14 12 13 14 13 13 14 16 19 22 24 22 21 24 25 28 39 51 57 62 58 56 53 54 54 53 54 53 50 48 48 50 51 48 45 41 37 35 33 31
18 15 21 18 18 15 16 18 16 14 13 15 16 16 18 19 25 31 37 41 43 45 51 53 52 51 49 45 44 44 47 50 51 53 53 54 50 45 41 37 34 32 31
18 26 25 20 15 13 18 18 18 19 18 16 14 13 15 14 14 23 30 34 38 42 48 50 49 47 44 43 44 46 49 53 54 55 57 54 50 46 40 38 35 32 31
25 20 19 12 11 15 18 20 21 21 21 19 16 17 18 18 20 20 22 27 28 30 32 36 40 42 42 43 46 50 52 53 56 57 56 54 51 46 43 39 36 34 32
14 10 9 10 12 13 15 16 19 19 17 15 17 20 19 23 27 29 32 32 35 37 38 40 43 45 47 49 49 50 53 54 52 52 53 52 50 47 44 40 38 37 34
9 10 11 12 13 15 17 18 18 18 19 19 20 22 25 27 31 34 36 38 40 42 43 46 48 49 49 47 48 51 52 52 53 52 52 51 49 48 46 43 40 39 37
7 10 12 14 15 15 15 15 15 16 18 20 21 24 26 29 31 35 38 40 43 45 46 48 49 50 49 49 50 50 51 53 52 52 52 53 52 50 50 47 44 41 39
7 9 9 10 10 11 12 15 18 20 22 24 27 31 33 35 37 39 41 42 45 47 49 49 49 49 50 50 50 51 52 52 53 54 55 56 57 55 52 49 45 44 41
Wind_Direction_500mb
297 292 291 283 274 265 256 251 249 251 256 252 250 247 241 241 243 246 248 249 246 245 243 239 238 240 237 228 223 229 226 220 211 200 200 207 216 228 241 257 269 276 286
299 301 298 296 287 275 266 257 253 252 254 253 250 246 240 241 244 245 248 243 247 243 238 233 236 239 230 221 222 221 212 208 202 197 194 216 222 228 247 256 266 280 292
293 290 286 280 287 283 274 266 260 255 254 252 250 248 244 244 244 246 249 246 246 239 236 236 236 226 216 213 208 200 196 194 195 214 213 214 220 225 250 260 270 288 300
274 280 276 272 277 277 281 275 267 259 255 254 251 251 249 250 249 249 247 245 245 240 238 236 231 223 212 206 206 193 192 194 213 205 207 224 233 240 254 271 287 294 304
278 277 273 264 264 264 269 274 268 259 255 252 250 250 251 253 253 248 251 253 245 242 236 231 220 211 213 208 196 188 203 206 204 217 236 239 246 255 267 279 293 303 305
280 281 274 267 268 266 266 265 259 252 249 249 249 248 248 250 253 258 257 252 244 235 228 217 213 201 189 189 184 196 191 208 254 254 256 242 250 263 276 289 299 302 307
282 280 275 274 274 271 268 264 259 251 247 247 246 245 246 248 252 255 255 247 240 234 221 203 204 192 192 191 194 197 238 293 298 281 255 242 250 264 274 284 293 298 302
279 274 272 271 271 268 264 262 258 252 248 250 249 247 245 246 249 256 254 243 232 221 214 208 204 202 202 199 220 227 257 282 286 265 243 248 254 264 273 287 294 297 300
280 278 276 274 272 267 261 258 254 248 245 246 249 250 252 250 248 249 248 233 222 208 210 212 200 200 216 208 217 230 264 278 272 254 256 263 266 275 286 289 293 297 302
282 277 274 273 270 266 260 254 250 243 239 240 243 245 249 251 250 249 245 228 220 206 196 205 209 205 207 212 220 250 270 288 279 264 262 266 271 273 280 282 288 294 296
285 281 278 275 270 265 257 249 241 240 234 234 239 243 243 243 244 241 239 231 221 216 204 199 194 203 208 233 244 262 273 287 275 260 261 268 274 277 276 283 293 297 297
292 289 284 279 272 265 257 248 238 233 228 227 231 236 236 238 236 233 232 222 214 207 196 197 204 205 220 233 254 266 270 279 267 255 260 267 271 279 287 294 296 298 299
290 287 283 276 267 259 250 242 229 226 227 224 223 227 227 229 227 219 217 213 204 205 213 209 209 215 227 241 257 262 261 271 262 256 259 261 268 275 282 284 290 292 295
282 279 271 261 254 244 232 222 221 221 218 220 222 229 230 229 224 202 206 216 215 208 215 207 216 223 223 240 250 256 253 263 260 257 256 261 269 275 278 283 285 290 298
269 262 255 245 235 230 218 220 214 210 218 224 218 219 220 222 223 206 203 206 205 212 205 210 222 212 226 243 247 256 262 257 260 256 257 266 269 270 274 279 286 294 302
256 257 248 233 224 227 220 211 207 204 187 191 184 180 174 184 191 203 206 211 207 212 220 216 218 222 236 244 250 260 255 258 257 257 262 263 264 268 271 277 285 294 302
249 251 245 238 188 174 203 199 208 208 192 189 196 194 193 188 184 194 205 209 212 213 224 224 231 241 243 247 256 259 263 261 260 260 259 260 265 267 271 278 285 290 300
237 240 236 226 178 155 181 189 201 213 213 212 216 209 210 206 199 190 190 202 208 221 234 236 237 241 248 257 260 265 260 257 258 257 259 264 266 266 271 276 281 287 296
191 187 217 219 197 175 197 202 205 217 221 215 216 212 208 205 199 195 200 212 213 218 231 239 247 254 260 263 262 258 257 256 255 256 262 264 262 263 267 271 276 283 288
189 211 223 212 199 186 206 210 214 221 231 226 217 217 211 216 213 208 212 219 228 235 242 249 255 260 261 263 259 256 255 253 254 260 261 258 258 259 263 266 271 276 281
219 223 217 200 191 196 216 222 226 224 231 238 240 228 238 242 240 228 228 236 233 238 243 248 255 260 261 262 259 256 255 258 260 259 257 257 257 258 260 262 263 267 272
213 209 206 200 207 217 223 228 232 236 237 245 250 236 243 247 246 246 245 246 249 251 253 256 259 262 262 260 260 260 261 262 261 259 258 258 257 257 258 259 261 264 268
178 190 209 210 214 224 231 235 240 241 245 245 245 251 252 247 246 251 254 256 258 261 264 265 267 269 267 265 264 263 262 263 264 261 258 258 258 259 259 258 260 261 265
210 224 231 231 233 234 233 235 240 244 249 251 254 260 263 260 258 260 261 263 265 267 269 269 270 269 268 267 267 266 265 262 260 259 258 258 259 259 259 259 261 262 263
227 226 229 232 233 237 242 247 255 263 269 273 273 271 269 270 270 268 268 269 270 272 272 273 273 273 273 272 270 268 265 263 260 258 258 258 258 257 257 257 257 258 260
242 241 242 242 247 258 271 281 282 282 281 280 279 279 278 277 276 277 279 280 280 281 281 280 279 278 277 275 272 269 265 263 261 260 258 257 256 255 255 255 255 255 257
Wind_Speed_850mb
12 17 24 30 38 44 51 59 64 67 62 54 53 56 63 67 69 79 73 79 71 88 82 86 88 82 70 67 62 57 55 48 38 40 34 30 28 27 27 23 27 27 25
18 24 30 33 39 45 47 52 58 59 58 55 53 54 58 59 66 67 75 70 81 82 83 86 86 83 71 61 55 52 50 40 33 27 32 26 28 27 22 27 26 25 26
34 36 38 40 42 46 49 52 54 52 52 54 56 59 60 63 65 68 67 72 71 75 77 81 80 72 70 64 56 53 48 41 31 21 21 27 27 22 22 22 24 27 31
44 48 52 51 48 49 51 53 53 51 51 51 52 57 58 61 65 68 66 70 74 75 74 68 65 63 56 56 52 51 42 29 20 22 24 22 25 24 21 25 28 34 40
52 54 58 55 54 56 56 56 52 52 51 50 52 56 57 55 56 56 58 63 68 68 64 57 56 50 46 54 53 42 25 23 26 23 24 25 27 26 29 29 35 42 49
60 62 58 56 57 58 58 54 52 53 52 51 50 54 54 55 54 54 57 60 63 58 55 50 42 45 60 55 45 28 23 23 20 29 32 32 31 27 29 30 41 47 58
66 64 59 58 58 56 56 53 52 52 52 52 49 51 52 52 51 52 49 53 57 53 49 55 52 64 62 60 42 27 18 23 39 46 34 32 30 27 30 36 44 49 54
60 54 50 52 51 50 52 52 50 50 51 49 46 49 50 49 45 46 45 45 46 48 55 54 59 68 69 57 45 31 24 36 45 39 33 38 40 40 38 37 48 53 55
55 52 50 47 45 46 46 47 45 48 49 46 42 46 46 46 45 44 40 42 49 55 58 55 68 62 62 56 35 26 32 38 38 40 40 38 40 40 35 41 46 47 53
49 47 45 45 45 44 40 40 41 43 44 45 44 43 41 39 38 39 40 47 58 63 65 67 66 66 53 42 27 35 39 34 35 31 35 39 38 36 37 39 37 44 48
48 44 41 39 38 37 38 40 38 41 40 42 42 40 37 37 35 34 34 45 60 64 67 68 77 62 46 35 43 42 32 29 30 33 39 38 37 36 36 41 41 42 45
47 43 38 36 34 33 33 33 35 37 37 38 37 37 35 33 29 29 30 47 56 62 67 71 72 66 56 44 42 41 29 31 34 38 39 38 37 41 45 46 45 45 50
39 37 35 34 32 30 29 30 30 30 32 32 34 34 32 32 30 27 36 47 54 58 67 65 58 59 53 51 45 40 33 35 41 42 40 41 45 44 45 45 46 45 48
32 30 27 27 25 25 26 27 26 27 28 27 27 26 25 26 29 36 48 41 55 58 54 54 59 47 52 53 47 42 41 40 45 47 48 48 46 44 44 46 45 43 42
27 26 25 23 18 18 20 18 18 18 15 14 14 14 15 19 24 33 47 50 53 55 53 54 57 53 64 58 53 52 53 51 52 51 50 47 44 44 46 45 42 40 37
27 26 27 26 19 18 18 16 18 18 18 17 13 13 14 15 17 29 42 45 44 49 53 55 56 60 60 60 59 58 55 55 53 51 49 46 44 45 44 41 39 37 35
24 21 22 24 20 18 15 13 17 19 21 20 17 15 16 19 21 26 33 37 42 44 51 50 56 61 59 57 61 59 57 55 53 52 48 45 45 44 41 38 36 36 33
12 7 11 15 12 14 14 15 12 16 19 22 25 25 24 22 24 26 31 36 43 49 52 55 56 57 58 58 56 59 60 57 53 49 47 47 46 43 40 37 36 34 31
16 11 10 14 12 13 14 13 13 14 16 19 22 24 22 21 24 25 28 39 51 57 62 58 56 53 54 54 53 54 53 50 48 48 50 51 48 45 41 37 35 33 31
18 15 21 18 18 15 16 18 16 14 13 15 16 16 18 19 25 31 37 41 43 45 51 53 52 51 49 45 44 44 47 50 51 53 53 54 50 45 41 37 34 32 31
18 26 25 20 15 13 18 18 18 19 18 16 14 13 15 14 14 23 30 34 38 42 48 50 49 47 44 43 44 46 49 53 54 55 57 54 50 46 40 38 35 32 31
25 20 19 12 11 15 18 20 21 21 21 19 16 17 18 18 20 20 22 27 28 30 32 36 40 42 42 43 46 50 52 53 56 57 56 54 51 46 43 39 36 34 32
14 10 9 10 12 13 15 16 19 19 17 15 17 20 19 23 27 29 32 32 35 37 38 40 43 45 47 49 49 50 53 54 52 52 53 52 50 47 44 40 38 37 34
9 10 11 12 13 15 17 18 18 18 19 19 20 22 25 27 31 34 36 38 40 42 43 46 48 49 49 47 48 51 52 52 53 52 52 51 49 48 46 43 40 39 37
7 10 12 14 15 15 15 15 15 16 18 20 21 24 26 29 31 35 38 40 43 45 46 48 49 50 49 49 50 50 51 53 52 52 52 53 52 50 50 47 44 41 39
7 9 9 10 10 11 12 15 18 20 22 24 27 31 33 35 37 39 41 42 45 47 49 49 49 49 50 50 50 51 52 52 53 54 55 56 57 55 52 49 45 44 41
Wind_Direction_850mb
297 292 291 283 274 265 256 251 249 251 256 252 250 247 241 241 243 246 248 249 246 245 243 239 238 240 237 228 223 229 226 220 211 200 200 207 216 228 241 257 269 276 286
299 301 298 296 287 275 266 257 253 252 254 253 250 246 240 241 244 245 248 243 247 243 238 233 236 239 230 221 222 221 212 208 202 197 194 216 222 228 247 256 266 280 292
293 290 286 280 287 283 274 266 260 255 254 252 250 248 244 244 244 246 249 246 246 239 236 236 236 226 216 213 208 200 196 194 195 214 213 214 220 225 250 260 270 288 300
274 280 276 272 277 277 281 275 267 259 255 254 251 251 249 250 249 249 247 245 245 240 238 236 231 223 212 206 206 193 192 194 213 205 207 224 233 240 254 271 287 294 304
278 277 273 264 264 264 269 274 268 259 255 252 250 250 251 253 253 248 251 253 245 242 236 231 220 211 213 208 196 188 203 206 204 217 236 239 246 255 267 279 293 303 305
280 281 274 267 268 266 266 265 259 252 249 249 249 248 248 250 253 258 257 252 244 235 228 217 213 201 189 189 184 196 191 208 254 254 256 242 250 263 276 289 299 302 307
282 280 275 274 274 271 268 264 259 251 247 247 246 245 246 248 252 255 255 247 240 234 221 203 204 192 192 191 194 197 238 293 298 281 255 242 250 264 274 284 293 298 302
279 274 272 271 271 268 264 262 258 252 248 250 249 247 245 246 249 256 254 243 232 221 214 208 204 202 202 199 220 227 257 282 286 265 243 248 254 264 273 287 294 297 300
280 278 276 274 272 267 261 258 254 248 245 246 249 250 252 250 248 249 248 233 222 208 210 212 200 200 216 208 217 230 264 278 272 254 256 263 266 275 286 289 293 297 302
282 277 274 273 270 266 260 254 250 243 239 240 243 245 249 251 250 249 245 228 220 206 196 205 209 205 207 212 220 250 270 288 279 264 262 266 271 273 280 282 288 294 296
285 281 278 275 270 265 257 249 241 240 234 234 239 243 243 243 244 241 239 231 221 216 204 199 194 203 208 233 244 262 273 287 275 260 261 268 274 277 276 283 293 297 297
292 289 284 279 272 265 257 248 238 233 228 227 231 236 236 238 236 233 232 222 214 207 196 197 204 205 220 233 254 266 270 279 267 255 260 267 271 279 287 294 296 298 299
290 287 283 276 267 259 250 242 229 226 227 224 223 227 227 229 227 219 217 213 204 205 213 209 209 215 227 241 257 262 261 271 262 256 259 261 268 275 282 284 290 292 295
282 279 271 261 254 244 232 222 221 221 218 220 222 229 230 229 224 202 206 216 215 208 215 207 216 223 223 240 250 256 253 263 260 257 256 261 269 275 278 283 285 290 298
269 262 255 245 235 230 218 220 214 210 218 224 218 219 220 222 223 206 203 206 205 212 205 210 222 212 226 243 247 256 262 257 260 256 257 266 269 270 274 279 286 294 302
256 257 248 233 224 227 220 211 207 204 187 191 184 180 174 184 191 203 206 211 207 212 220 216 218 222 236 244 250 260 255 258 257 257 262 263 264 268 271 277 285 294 302
249 251 245 238 188 174 203 199 208 208 192 189 196 194 193 188 184 194 205 209 212 213 224 224 231 241 243 247 256 259 263 261 260 260 259 260 265 267 271 278 285 290 300
237 240 236 226 178 155 181 189 201 213 213 212 216 209 210 206 199 190 190 202 208 221 234 236 237 241 248 257 260 265 260 257 258 257 259 264 266 266 271 276 281 287 296
191 187 217 219 197 175 197 202 205 217 221 215 216 212 208 205 199 195 200 212 213 218 231 239 247 254 260 263 262 258 257 256 255 256 262 264 262 263 267 271 276 283 288
189 211 223 212 199 186 206 210 214 221 231 226 217 217 211 216 213 208 212 219 228 235 242 249 255 260 261 263 259 256 255 253 254 260 261 258 258 259 263 266 271 276 281
219 223 217 200 191 196 216 222 226 224 231 238 240 228 238 242 240 228 228 236 233 238 243 248 255 260 261 262 259 256 255 258 260 259 257 257 257 258 260 262 263 267 272
213 209 206 200 207 217 223 228 232 236 237 245 250 236 243 247 246 246 245 246 249 251 253 256 259 262 262 260 260 260 261 262 261 259 258 258 257 257 258 259 261 264 268
178 190 209 210 214 224 231 235 240 241 245 245 245 251 252 247 246 251 254 256 258 261 264 265 267 269 267 265 264 263 262 263 264 261 258 258 258 259 259 258 260 261 265
210 224 231 231 233 234 233 235 240 244 249 251 254 260 263 260 258 260 261 263 265 267 269 269 270 269 268 267 267 266 265 262 260 259 258 258 259 259 259 259 261 262 263
227 226 229 232 233 237 242 247 255 263 269 273 273 271 269 270 270 268 268 269 270 272 272 273 273 273 273 272 270 268 265 263 260 258 258 258 258 257 257 257 257 258 260
242 241 242 242 247 258 271 281 282 282 281 280 279 279 278 277 276 277 279 280 280 281 281 280 279 278 277 275 272 269 265 263 261 260 258 257 256 255 255 255 255 255 257